Weather History for KOVL - January, 2013

Change the Weather History Date:

Sunday, January 6, 2013

  Actual Average (KRWF) Record (KRWF)
Temperature  
Mean Temperature 17 °F -  
Max Temperature 26 °F 19 °F - (-1)
Min Temperature 8 °F 3 °F - (-1)
Degree Days  
Heating Degree Days 48    
Moisture  
Dew Point 11 °F    
Average Humidity 83    
Maximum Humidity 92    
Minimum Humidity 73    
Precipitation  
Precipitation 0.00 in - - ()
Sea Level Pressure  
Sea Level Pressure 30.12 in    
Wind  
Wind Speed 10 mph (SW)    
Max Wind Speed 21 mph    
Max Gust Speed 28 mph    
Visibility 8 miles    
Events Snow    
Averages and records for this station are not official NWS values.
T = Trace of Precipitation, MM = Missing Value Source: NWS Daily Summary

Daily Weather History Graph

Daily Weather History Graph

Search for Another Location

Airport or City:

Trip Planner

Search our weather history database for the weather conditions in past years. The results will help you decide how hot, cold, wet, or windy it might be!

Date:

Astronomy

Jan. 06, 2013 Rise Set
Actual Time 7:57 AM CST 4:55 PM CST
Civil Twilight 7:24 AM CST 5:28 PM CST
Nautical Twilight 6:47 AM CST 6:05 PM CST
Astronomical Twilight 6:12 AM CST 6:40 PM CST
Moon 2:06 AM CST (1/6) 12:27 PM CST (1/6)
Length of Visible Light 10h 04m
Length of Day
8h 58m
Waning Crescent, 33% of the Moon is Illuminated
Jan 6
Waning Crescent
Jan 11
New
Jan 18
First Quarter
Jan 26
Full
Feb 3
Last Quarter

Hourly Weather History & Observations

Time (CST) Temp. Windchill Dew Point Humidity Pressure Visibility Wind Dir Wind Speed Gust Speed Precip Events Conditions
12:11 AM 10.4 °F -6.6 °F 5.0 °F 79% 30.09 in 10.0 mi NW 16.1 mph 21.9 mph N/A   Clear
12:31 AM 10.4 °F -7.2 °F 3.2 °F 73% 30.09 in 10.0 mi NW 17.3 mph 23.0 mph N/A   Clear
12:51 AM 10.4 °F -6.0 °F 3.2 °F 73% 30.09 in 10.0 mi NW 15.0 mph - N/A   Clear
1:11 AM 10.4 °F -4.8 °F 3.2 °F 73% 30.10 in 10.0 mi NW 12.7 mph - N/A   Clear
1:31 AM 10.4 °F -4.8 °F 3.2 °F 73% 30.10 in 10.0 mi NW 12.7 mph - N/A   Clear
1:51 AM 10.4 °F -3.3 °F 5.0 °F 79% 30.11 in 10.0 mi NW 10.4 mph - N/A   Clear
2:11 AM 10.4 °F -3.3 °F 5.0 °F 79% 30.12 in 10.0 mi WNW 10.4 mph - N/A   Clear
2:31 AM 10.4 °F -3.3 °F 5.0 °F 79% 30.13 in 10.0 mi WNW 10.4 mph - N/A   Clear
2:51 AM 8.6 °F -3.7 °F 3.2 °F 79% 30.14 in 10.0 mi WNW 8.1 mph - N/A   Clear
3:11 AM 10.4 °F -1.5 °F 5.0 °F 79% 30.14 in 10.0 mi NW 8.1 mph - N/A   Mostly Cloudy
3:31 AM 10.4 °F -1.5 °F 5.0 °F 79% 30.12 in 10.0 mi NW 8.1 mph - N/A   Overcast
4:11 AM 12.2 °F -1.0 °F 8.6 °F 85% 30.14 in 10.0 mi NW 10.4 mph - N/A   Overcast
4:31 AM 12.2 °F -0.2 °F 8.6 °F 85% 30.14 in 10.0 mi NW 9.2 mph - N/A   Overcast
4:50 AM 12.2 °F -0.2 °F 8.6 °F 85% 30.14 in 10.0 mi NW 9.2 mph - N/A   Overcast
5:31 AM 12.2 °F 1.7 °F 8.6 °F 85% 30.14 in 10.0 mi WNW 6.9 mph - N/A   Overcast
5:51 AM 12.2 °F 2.9 °F 10.4 °F 92% 30.14 in 10.0 mi WNW 5.8 mph - N/A   Overcast
6:11 AM 12.2 °F 0.7 °F 10.4 °F 92% 30.14 in 10.0 mi West 8.1 mph - N/A   Overcast
6:30 AM 12.2 °F 4.3 °F 10.4 °F 92% 30.16 in 10.0 mi NW 4.6 mph - N/A   Overcast
6:51 AM 15.8 °F 8.6 °F 12.2 °F 86% 30.17 in 10.0 mi NNW 4.6 mph - N/A   Overcast
7:11 AM 15.8 °F 6.1 °F 12.2 °F 86% 30.18 in 10.0 mi NNW 6.9 mph - N/A   Overcast
7:30 AM 15.8 °F 7.2 °F 12.2 °F 86% 30.18 in 7.0 mi NNW 5.8 mph - N/A   Overcast
7:51 AM 15.8 °F 7.2 °F 12.2 °F 86% 30.19 in 2.0 mi NW 5.8 mph - N/A   Overcast
8:10 AM 15.8 °F 6.1 °F 12.2 °F 86% 30.18 in 0.8 mi NNW 6.9 mph - N/A   Overcast
8:31 AM 15.8 °F 8.6 °F 12.2 °F 86% 30.18 in 0.5 mi NNW 4.6 mph - N/A Snow Light Snow
8:51 AM 15.8 °F 8.6 °F 12.2 °F 86% 30.20 in 0.5 mi North 4.6 mph - N/A Snow Light Snow
9:11 AM 15.8 °F 8.6 °F 12.2 °F 86% 30.21 in 0.2 mi NNW 4.6 mph - N/A Snow Light Snow
9:31 AM 15.8 °F - 12.2 °F 86% 30.21 in 0.5 mi Calm Calm - N/A Snow Light Snow
9:51 AM 15.8 °F - 12.2 °F 86% 30.21 in 0.2 mi Calm Calm - N/A Snow Light Snow
10:11 AM 15.8 °F 10.2 °F 12.2 °F 86% 30.21 in 0.2 mi SW 3.5 mph - N/A Snow Snow
10:30 AM 15.8 °F - 12.2 °F 86% 30.21 in 0.5 mi Calm Calm - N/A Snow Light Snow
10:51 AM 15.8 °F 10.2 °F 12.2 °F 86% 30.21 in 0.5 mi SSW 3.5 mph - N/A Snow Light Snow
11:11 AM 15.8 °F 8.6 °F 12.2 °F 86% 30.22 in 0.5 mi SW 4.6 mph - N/A Snow Light Snow
11:30 AM 15.8 °F 8.6 °F 12.2 °F 86% 30.22 in 1.2 mi SW 4.6 mph - N/A Snow Light Snow
11:51 AM 15.8 °F 8.6 °F 12.2 °F 86% 30.20 in 2.0 mi SSE 4.6 mph - N/A Snow Light Snow
12:11 PM 15.8 °F 10.2 °F 12.2 °F 86% 30.20 in 4.0 mi South 3.5 mph - N/A   Scattered Clouds
12:31 PM 17.6 °F 10.7 °F 14.0 °F 86% 30.19 in 7.0 mi SSE 4.6 mph - N/A   Clear
12:50 PM 17.6 °F 9.3 °F 14.0 °F 86% 30.18 in 10.0 mi South 5.8 mph - N/A   Clear
1:11 PM 17.6 °F 9.3 °F 14.0 °F 86% 30.17 in 10.0 mi South 5.8 mph - N/A   Clear
1:30 PM 17.6 °F 10.7 °F 14.0 °F 86% 30.16 in 10.0 mi South 4.6 mph - N/A   Clear
1:51 PM 17.6 °F 8.2 °F 14.0 °F 86% 30.16 in 10.0 mi South 6.9 mph - N/A   Clear
2:11 PM 17.6 °F 7.3 °F 14.0 °F 86% 30.16 in 10.0 mi SSW 8.1 mph - N/A   Clear
2:31 PM 17.6 °F 9.3 °F 12.2 °F 79% 30.16 in 10.0 mi South 5.8 mph - N/A   Clear
2:51 PM 19.4 °F 11.5 °F 12.2 °F 74% 30.15 in 10.0 mi South 5.8 mph - N/A   Clear
3:10 PM 19.4 °F 10.4 °F 12.2 °F 74% 30.15 in 10.0 mi SSE 6.9 mph - N/A   Clear
3:31 PM 19.4 °F 10.4 °F 12.2 °F 74% 30.15 in 10.0 mi SSE 6.9 mph - N/A   Clear
3:50 PM 17.6 °F 9.3 °F 12.2 °F 79% 30.15 in 10.0 mi SSE 5.8 mph - N/A   Clear
4:11 PM 17.6 °F 8.2 °F 12.2 °F 79% 30.14 in 10.0 mi SSE 6.9 mph - N/A   Clear
4:50 PM 15.8 °F 7.2 °F 10.4 °F 79% 30.14 in 10.0 mi SSE 5.8 mph - N/A   Clear
5:11 PM 15.8 °F 8.6 °F 10.4 °F 79% 30.13 in 10.0 mi SSE 4.6 mph - N/A   Clear
5:31 PM 15.8 °F 7.2 °F 10.4 °F 79% 30.13 in 10.0 mi SSE 5.8 mph - N/A   Clear
6:11 PM 15.8 °F 6.1 °F 10.4 °F 79% 30.11 in 10.0 mi SE 6.9 mph - N/A   Clear
6:31 PM 15.8 °F 4.2 °F 12.2 °F 86% 30.11 in 10.0 mi SSE 9.2 mph - N/A   Clear
6:51 PM 15.8 °F 4.2 °F 12.2 °F 86% 30.10 in 10.0 mi SSE 9.2 mph - N/A   Clear
7:11 PM 15.8 °F 3.4 °F 12.2 °F 86% 30.08 in 10.0 mi SE 10.4 mph - N/A   Clear
7:31 PM 17.6 °F 5.0 °F 12.2 °F 79% 30.06 in 10.0 mi SSE 11.5 mph - N/A   Clear
7:51 PM 17.6 °F 4.3 °F 14.0 °F 86% 30.04 in 10.0 mi SSE 12.7 mph - N/A   Clear
8:11 PM 17.6 °F 5.0 °F 14.0 °F 86% 30.03 in 10.0 mi SSE 11.5 mph - N/A   Clear
8:30 PM 17.6 °F 4.3 °F 14.0 °F 86% 30.01 in 10.0 mi SSE 12.7 mph - N/A   Clear
9:11 PM 17.6 °F 4.3 °F 14.0 °F 86% 29.98 in 10.0 mi SSE 12.7 mph - N/A   Clear
9:51 PM 19.4 °F 4.1 °F 14.0 °F 80% 29.96 in 10.0 mi SSE 18.4 mph 23.0 mph N/A   Clear
10:11 PM 21.2 °F 7.3 °F 15.8 °F 80% 29.95 in 10.0 mi SSE 16.1 mph - N/A   Clear
10:30 PM 21.2 °F 6.8 °F 15.8 °F 80% 29.93 in 10.0 mi SSE 17.3 mph - N/A   Clear
10:51 PM 21.2 °F 6.0 °F 15.8 °F 80% 29.91 in 10.0 mi SSE 19.6 mph - N/A   Clear
11:31 PM 26.6 °F 12.7 °F 19.4 °F 74% 29.87 in 10.0 mi South 20.7 mph 27.6 mph N/A   Clear
11:50 PM 24.8 °F 10.7 °F 19.4 °F 80% 29.86 in 10.0 mi South 19.6 mph 27.6 mph N/A   Clear